Starlink 4118

operational
NORAD ID: 53538 Int'l Des: 2022-101 Owner: SPXS Country: US Constellation: starlink
LEOCIRCULAR

About Starlink 4118

Description loading...

Live Position

Loading 3D Globe...

Upcoming Passes

Altitude History

Altitude vs Time

uPlot chart will show altitude changes over time

Two-Line Element Set

1 53538U 22101M 25350.91670139 .01880834 00000-0 64869-1 0 9997
2 53538 53.2185 74.9936 0001761 69.7795 352.2017 15.26344252 5791
Epoch: Dec 16, 2025 • Age: 9 hours

Current Status

Altitude 496.9 km
Velocity 7.62 km/s
Sub-Earth Point -40.66°S, 156.36°W
Launch Date Aug 19, 2022
Age 3.3 years
Type internet

Technical Details

Classification Payload
Mass 300.00 kg
Dry Mass 290.00 kg
Total Mass 300.00 kg
Length 0.20 m
Diameter 2.80 m
Span 9.00 m
Shape Box + pan
Manufacturer SPXS
Bus Type Starlink
Phase Status In Orbit
Owner/State SPXS/US

Large Constellations

Loading constellations...